TimeCDT,TemperatureF,Dew PointF,Humidity,Sea Level PressureIn,VisibilityMPH,Wind Direction,Wind SpeedMPH,Gust SpeedMPH,PrecipitationIn,Events,Conditions,WindDirDegrees,DateUTC
12:53 AM,71.1,69.1,93,29.97,10.0,Calm,Calm,-,N/A,,Clear,0,2013-05-23 05:53:00
1:53 AM,69.1,68.0,96,29.96,10.0,Calm,Calm,-,N/A,,Clear,0,2013-05-23 06:53:00
2:53 AM,69.1,68.0,96,29.96,10.0,Calm,Calm,-,N/A,,Clear,0,2013-05-23 07:53:00
3:53 AM,69.1,66.9,93,29.97,8.0,Calm,Calm,-,N/A,,Clear,0,2013-05-23 08:53:00
4:53 AM,66.9,66.9,100,29.98,7.0,Calm,Calm,-,N/A,,Clear,0,2013-05-23 09:53:00
5:53 AM,66.9,66.0,97,29.99,10.0,Calm,Calm,-,N/A,,Clear,0,2013-05-23 10:53:00
6:08 AM,68.0,66.2,94,29.99,5.0,Calm,Calm,-,N/A,,Partly Cloudy,0,2013-05-23 11:08:00
6:37 AM,68.0,68.0,100,30.00,4.0,Calm,Calm,-,N/A,,Scattered Clouds,0,2013-05-23 11:37:00
6:45 AM,69.8,68.0,94,30.01,4.0,Calm,Calm,-,N/A,,Scattered Clouds,0,2013-05-23 11:45:00
6:53 AM,69.1,68.0,96,30.01,4.0,Calm,Calm,-,N/A,,Mostly Cloudy,0,2013-05-23 11:53:00
7:13 AM,69.8,68.0,94,30.02,0.2,East,3.5,-,N/A,,Overcast,90,2013-05-23 12:13:00
7:24 AM,69.8,69.8,100,30.02,0.2,Calm,Calm,-,N/A,,Overcast,0,2013-05-23 12:24:00
7:53 AM,71.1,71.1,100,30.02,0.2,East,3.5,-,N/A,Fog,Fog,100,2013-05-23 12:53:00
8:23 AM,73.4,73.4,100,30.03,0.2,Calm,Calm,-,N/A,Fog,Fog,0,2013-05-23 13:23:00
8:39 AM,73.4,73.4,100,30.04,0.5,Calm,Calm,-,N/A,Fog,Fog,0,2013-05-23 13:39:00
8:53 AM,73.0,73.0,100,30.04,1.0,East,3.5,-,N/A,,Overcast,90,2013-05-23 13:53:00
9:11 AM,73.4,73.4,100,30.04,3.0,ENE,4.6,-,N/A,,Overcast,70,2013-05-23 14:11:00
9:53 AM,77.0,73.0,88,30.04,6.0,NE,4.6,-,N/A,,Mostly Cloudy,40,2013-05-23 14:53:00
9:55 AM,77.0,73.4,89,30.04,6.0,ENE,4.6,-,N/A,,Mostly Cloudy,60,2013-05-23 14:55:00
10:53 AM,82.0,73.9,76,30.04,10.0,ESE,4.6,-,N/A,,Mostly Cloudy,110,2013-05-23 15:53:00
11:00 AM,82.4,73.4,74,30.05,10.0,ENE,6.9,-,N/A,,Scattered Clouds,70,2013-05-23 16:00:00
11:11 AM,82.4,73.4,74,30.05,10.0,ESE,8.1,-,N/A,,Mostly Cloudy,120,2013-05-23 16:11:00
11:53 AM,84.0,71.1,65,30.06,10.0,SE,5.8,-,N/A,,Mostly Cloudy,130,2013-05-23 16:53:00
12:00 PM,84.2,71.6,66,30.05,10.0,Variable,4.6,-,N/A,,Scattered Clouds,0,2013-05-23 17:00:00
12:53 PM,87.1,71.1,59,30.04,10.0,East,5.8,-,N/A,,Scattered Clouds,80,2013-05-23 17:53:00
1:53 PM,86.0,70.0,59,30.03,10.0,SW,5.8,-,N/A,,Mostly Cloudy,220,2013-05-23 18:53:00
2:53 PM,88.0,69.1,53,30.01,10.0,SSW,3.5,-,N/A,,Mostly Cloudy,210,2013-05-23 19:53:00
3:53 PM,89.1,72.0,57,30.00,10.0,WSW,8.1,-,N/A,,Scattered Clouds,240,2013-05-23 20:53:00
4:53 PM,87.1,70.0,57,29.98,10.0,West,3.5,-,N/A,,Clear,260,2013-05-23 21:53:00
5:53 PM,84.9,71.1,63,29.98,10.0,WNW,4.6,-,N/A,,Overcast,300,2013-05-23 22:53:00
6:45 PM,82.4,73.4,74,29.99,7.0,WSW,6.9,-,0.00,Thunderstorm,Thunderstorm,240,2013-05-23 23:45:00
6:53 PM,81.0,73.9,79,29.98,8.0,West,9.2,16.1,0.00,Rain-Thunderstorm,Light Thunderstorms and Rain,260,2013-05-23 23:53:00
7:53 PM,77.0,70.0,79,30.03,10.0,South,6.9,-,0.00,Thunderstorm,Thunderstorm,190,2013-05-24 00:53:00
8:11 PM,75.2,69.8,83,30.05,10.0,SSE,13.8,-,N/A,Thunderstorm,Thunderstorm,150,2013-05-24 01:11:00
8:38 PM,69.8,66.2,88,30.05,8.0,SSE,13.8,29.9,0.05,Rain-Thunderstorm,Light Thunderstorms and Rain,150,2013-05-24 01:38:00
8:57 PM,-9999,-9999,N/A,30.06,-9999.0,North,3.5,-,0.05,Rain-Thunderstorm,Light Thunderstorms and Rain,350,2013-05-24 01:57:00
9:44 PM,69.8,64.4,83,30.05,10.0,West,4.6,-,0.05,,Clear,260,2013-05-24 02:44:00
9:53 PM,68.0,66.0,93,30.05,10.0,WNW,4.6,-,0.05,,Clear,300,2013-05-24 02:53:00
10:53 PM,66.9,64.9,93,30.02,10.0,ENE,4.6,-,N/A,,Clear,70,2013-05-24 03:53:00
11:53 PM,66.9,64.9,93,30.05,10.0,NNW,5.8,-,N/A,,Clear,340,2013-05-24 04:53:00